Flag for Saudi Arabia

Past Weather in Riyadh, Saudi Arabia — Yesterday and Last 2 Weeks

Now
113 °F

Sunny.


Feels Like: 105 °F
Forecast: 113 / 87 °F
Wind: No wind

Location: Riyadh Airport

Current Time: Jul 6, 2020 at 1:16:24 pm

Latest Report: Jul 6, 2020 at 12:00 pm


Visibility: 10 mi

Pressure: 29.53 "Hg (27.72 "Hg at 590m altitude)

Humidity: 6%

Dew Point: 30 °F

Location of RiyadhLocation

Past Weather in Riyadh — Graph

°F

Riyadh Temperature Yesterday

Maximum temperature yesterday: 113 °F (at 3:00 pm)
Minimum temperature yesterday: 95 °F (at 11:00 pm)
Average temperature yesterday: 106 °F

High & Low Weather Summary for the Past Weeks

 TemperatureHumidityPressure
High113 °F (Jun 29, 2:00 pm)41% (Jul 3, 7:00 am)29.86 "Hg (Jul 3, 7:00 am)
Low84 °F (Jun 25, 1:00 am)5% (Jun 23, 11:00 pm)29.50 "Hg (Jul 5, 3:00 pm)
Average101 °F9%29.69 "Hg
* Reported Jun 21 12:00 pm — Jul 6 12:00 pm, Riyadh. Weather by CustomWeather, © 2020

Note: Actual official high and low records may vary slightly from our data, if they occured in-between our weather recording intervals... More about our weather records

Riyadh Weather History for the Previous 24 Hours

Scroll right to see more
 ConditionsComfort  
Time TempWeatherWind HumidityBarometerVisibility
12:00 pm
Mon, Jul 6
113 °FSunny.No wind6%29.53 "Hg10 mi
11:00 am111 °FSunny.6 mph6%29.56 "Hg10 mi
10:00 am109 °FSunny.3 mph6%29.56 "Hg10 mi
9:00 am108 °FSunny.No wind8%29.56 "Hg10 mi
8:00 am102 °FSunny.3 mph9%29.56 "Hg10 mi
7:00 am95 °FSunny.No wind11%29.56 "Hg10 mi
6:00 am88 °FSunny.No wind13%29.53 "Hg10 mi
11:00 pm
Sun, Jul 5
95 °FClear.6 mph9%29.56 "Hg10 mi
10:00 pm99 °FClear.6 mph8%29.56 "Hg10 mi
9:00 pm102 °FClear.7 mph7%29.53 "Hg10 mi
8:00 pm104 °FClear.8 mph6%29.50 "Hg10 mi
7:00 pm108 °FClear.10 mph6%29.50 "Hg10 mi
6:00 pm109 °FSunny.10 mph7%29.50 "Hg10 mi
5:00 pm113 °FSunny.8 mph6%29.50 "Hg10 mi
4:00 pm113 °FSunny.9 mph6%29.50 "Hg10 mi
3:00 pm113 °FSunny.5 mph7%29.50 "Hg10 mi
2:00 pm111 °FSunny.9 mph6%29.53 "Hg10 mi
1:00 pm109 °FSunny.9 mph7%29.56 "Hg10 mi
Weather by CustomWeather, © 2020

See weather overview